SCP
1 0 0 0 0 0 0 0 0 0 0 0 0 1 1 1 1 1 1 1 0 0 0 0 1 1 1 1 1 1 1 1 1 1 1 1 1 1
0 0 0 0 0 0 0 0 0 0 0 0 0 0 1 1 1 1 1 1 0 0 0 0 0 0 1 1 1 1 1 1 1 1 1 1 1 1
0 0 0 0 0 0 0 0 0 0 0 0 0 0 1 1 1 1 1 1 0 0 0 0 0 0 0 0 0 0 0 0 0 0 0 0 0 0
0 0 0 0 0 0 0 0 0 0 0 0 0 0 0 1 1 1 1 1 1 0 0 0 0 0 0 0 0 0 0 0 0 0 0 0 0 0
0 0 0 0 0 0 0 0 0 0 0 0 0 0 0 0 1 1 1 1 1 0 0 0 0 0 0 0 0 0 0 0 0 0 0 0 0 0
0 0 0 0 0 0 0 0 0 0 0 0 0 0 0 0 1 1 1 1 1 0 0 0 0 0 0 0 0 0 0 0 0 0 0 0 0 0
0 0 0 0 0 0 0 0 0 0 0 1 0 0 0 0 1 1 1 1 1 0 0 0 0 0 0 0 0 0 0 0 0 0 0 0 0 0
0 0 0 0 0 0 0 0 0 0 0 1 1 0 0 1 1 1 1 1 0 0 0 0 0 0 0 0 0 0 0 0 0 0 0 0 0 0
0 0 0 0 0 0 0 0 0 0 0 1 1 1 1 1 1 1 1 1 0 0 0 0 0 0 0 0 0 0 0 0 0 0 0 0 0 0
0 0 0 0 0 0 0 0 0 0 0 0 0 0 0 0 1 1 1 1 0 0 0 0 0 0 0 0 0 0 0 0 0 0 0 0 0 0
0 0 0 0 0 0 0 0 1 0 0 0 0 0 0 0 0 1 1 0 0 0 0 0 0 0 0 0 0 0 0 0 0 0 0 0 0 0
0 0 0 0 0 0 0 0 0 0 0 0 0 0 0 0 0 1 1 0 0 0 0 0 0 0 0 0 0 0 0 0 0 0 0 0 0 0
0 0 0 0 0 0 0 0 0 0 0 0 0 0 0 0 0 1 1 1 0 1 1 1 1 0 0 0 0 0 0 0 0 0 0 0 0 0
0 0 0 0 0 0 0 0 0 0 0 0 0 0 0 0 0 0 1 1 1 1 1 1 1 1 1 0 0 0 0 0 0 0 0 0 0 0
0 0 0 0 0 0 0 0 0 0 0 0 0 0 0 0 0 0 0 1 1 1 1 1 1 1 1 1 0 0 0 0 0 0 0 0 0 0
0 0 0 0 0 0 0 0 0 0 0 0 0 0 0 0 0 0 0 0 0 0 0 1 1 1 1 1 1 0 0 0 0 0 0 0 0 0
0 0 0 0 0 0 0 0 0 0 0 0 0 0 0 0 0 0 0 0 0 0 0 0 1 1 1 1 1 1 0 0 0 0 0 0 0 0
0 0 0 0 0 0 0 0 0 0 0 0 0 0 0 0 0 0 0 0 0 0 0 0 0 1 1 1 1 0 0 0 0 0 0 0 0 0
0 0 0 0 0 0 0 0 0 0 0 0 0 0 0 0 0 0 0 0 0 0 0 0 0 1 1 1 0 0 0 0 0 0 0 0 0 0
0 0 0 0 0 0 0 0 0 0 0 0 0 0 0 0 0 0 0 0 0 0 0 0 0 0 1 1 0 0 0 0 0 0 0 0 0 0
0 0 0 0 0 0 0 0 0 0 0 0 0 0 0 0 0 0 0 0 0 0 0 0 0 0 1 1 0 0 0 0 0 0 0 0 0 0
0 0 0 0 0 0 0 0 0 0 0 0 0 0 0 0 0 0 0 0 0 0 0 0 0 0 0 0 0 0 0 0 0 0 0 0 0 0
0 0 0 0 0 0 0 0 0 0 0 0 0 0 0 0 0 0 0 0 0 0 0 0 0 0 0 0 0 0 0 0 0 0 0 0 0 0
Wind_Speed
5 5 4 3 3 3 3 3 3 3 3 2 1 3 4 5 7 8 8 11 13 13 14 14 13 13 14 14 14 13 13 13 13 13 13 13 15 16
4 5 4 3 3 3 3 3 3 3 2 2 1 1 3 4 6 7 7 11 12 13 13 12 12 12 11 12 12 12 12 11 11 11 11 11 12 12
5 5 5 4 3 3 3 2 2 2 2 1 1 1 2 4 4 4 5 6 6 10 11 11 10 10 10 10 10 10 10 10 10 10 10 10 10 11
6 5 6 4 5 3 3 3 3 2 2 2 1 1 2 3 4 5 5 5 5 8 9 9 9 9 9 9 9 9 9 9 9 8 8 9 9 10
6 6 6 5 5 4 4 3 2 2 2 2 2 1 1 2 4 4 5 4 4 6 7 7 8 8 8 8 8 8 8 8 7 7 6 6 7 7
6 6 6 6 6 5 4 4 3 3 2 2 2 2 2 3 3 4 4 3 4 4 5 5 7 8 7 8 8 7 7 7 7 6 5 5 5 6
6 6 6 8 9 6 4 4 4 3 3 3 3 2 2 3 4 3 4 4 3 3 4 4 4 4 4 6 7 7 7 6 6 6 5 5 5 5
6 6 6 7 8 9 8 7 7 5 4 3 3 3 3 3 4 5 5 5 3 3 4 3 3 3 3 3 5 7 7 7 6 6 6 5 5 4
6 5 5 5 6 6 7 8 7 7 6 5 4 4 4 5 6 6 5 5 4 5 4 3 3 3 2 3 6 7 7 7 7 6 6 5 5 4
6 6 6 5 5 5 6 6 5 5 6 5 4 4 4 4 6 6 6 5 4 4 4 4 4 3 3 2 4 6 7 7 7 7 6 5 5 4
6 6 6 5 6 7 6 6 5 4 4 6 5 5 6 6 6 5 6 6 4 3 3 4 4 4 3 2 3 6 6 7 7 6 6 6 5 5
4 4 6 6 7 8 7 6 6 5 4 4 4 4 5 5 8 7 7 6 4 4 4 5 5 5 4 2 3 3 4 5 6 6 6 6 5 4
3 3 3 5 7 8 7 6 7 6 5 5 4 3 3 3 4 5 6 6 5 4 6 6 5 4 4 4 3 3 4 3 4 4 5 6 5 4
3 3 3 4 5 7 6 6 7 6 4 4 3 3 3 4 4 5 5 5 4 4 7 7 5 6 6 5 4 4 4 4 4 4 4 5 6 6
3 4 4 5 5 4 5 7 6 5 4 4 5 4 3 3 3 3 3 3 3 3 7 6 5 6 5 5 6 5 5 4 4 4 4 4 4 4
2 2 3 3 2 2 3 3 4 4 5 5 4 3 3 3 3 3 3 4 4 3 5 6 6 8 5 5 6 6 6 6 6 5 5 4 3 3
0 0 1 1 2 2 2 3 3 4 5 4 4 4 3 3 3 3 3 4 4 5 5 4 4 3 4 6 6 6 6 5 6 7 6 4 3 3
1 1 2 2 3 3 3 3 4 5 5 5 5 5 5 5 4 4 4 5 5 5 5 5 6 4 3 1 3 7 6 6 6 7 6 5 4 4
1 2 2 3 2 3 3 4 4 4 4 5 5 5 5 5 5 5 5 5 5 6 6 7 7 7 7 6 4 6 7 7 7 6 5 4 5 5
1 2 2 3 3 3 4 4 4 4 4 5 5 6 6 6 6 6 6 7 6 5 6 7 8 8 8 6 5 5 8 8 8 7 6 3 3 4
2 3 3 3 3 4 4 4 5 5 5 5 6 6 6 6 6 6 6 8 7 6 7 7 7 8 4 5 5 4 5 6 6 6 7 6 5 4
3 3 3 3 3 3 4 4 4 4 5 6 6 6 6 7 7 8 7 7 7 7 7 5 7 7 6 7 7 7 6 5 4 6 5 4 5 7
3 3 3 3 3 3 3 3 4 4 5 5 6 6 6 6 6 7 7 7 7 7 7 6 6 6 6 7 7 7 9 8 6 5 3 3 2 4
Wind_Direction
244 241 239 242 239 235 231 214 204 211 220 219 190 193 196 192 189 191 190 189 190 193 195 195 194 194 195 197 200 204 206 207 209 212 216 219 221 223
244 240 237 238 237 234 232 229 214 202 210 206 197 181 182 182 177 181 185 179 181 183 183 184 185 187 190 193 197 200 202 205 208 211 213 217 220 222
248 240 239 231 229 229 228 228 227 196 197 193 160 99 141 153 150 157 160 161 166 170 170 172 175 178 183 186 191 194 195 198 203 206 210 214 218 222
244 238 241 232 227 223 218 223 223 206 192 186 157 131 129 150 138 138 140 143 147 154 156 160 164 168 173 177 180 184 187 192 198 204 209 214 218 222
246 237 237 229 226 221 212 214 222 213 193 168 157 132 125 133 121 112 120 117 128 138 141 146 151 153 157 162 166 170 173 177 183 190 200 209 215 218
249 241 237 228 224 218 211 204 204 202 182 166 156 148 146 136 136 135 131 123 120 117 117 125 133 136 143 147 152 156 160 164 170 178 186 196 207 213
252 243 236 230 225 215 207 199 191 187 184 179 168 154 160 156 161 151 143 131 108 124 123 122 127 130 138 143 146 149 154 160 168 175 179 184 194 203
253 247 240 234 225 214 211 201 190 184 190 187 182 178 180 175 162 154 147 149 150 151 135 128 127 131 134 143 148 150 152 158 163 165 167 168 173 184
249 246 244 232 213 209 207 204 203 203 196 188 193 194 181 181 170 166 167 164 160 157 142 139 138 139 132 134 148 152 152 152 154 154 153 156 161 168
245 237 235 239 225 202 194 196 201 211 208 203 205 209 203 184 182 176 164 141 114 145 154 148 149 144 126 121 136 144 144 143 142 142 140 141 144 150
245 236 228 228 225 205 191 189 193 211 218 213 210 213 210 191 171 153 153 155 151 164 166 147 143 132 130 136 126 132 136 136 135 135 136 135 134 135
242 239 233 225 215 203 192 186 194 203 194 194 201 202 200 193 186 179 170 170 155 164 169 150 145 145 148 147 153 149 135 129 131 134 136 135 138 135
233 231 231 220 214 208 198 196 199 189 186 186 186 186 186 188 196 195 185 180 171 165 166 154 150 154 148 144 158 166 165 156 146 136 132 133 139 146
238 235 231 224 221 212 202 204 194 178 170 173 180 190 195 198 202 201 197 196 189 170 167 162 154 162 153 152 159 163 168 165 158 151 142 132 118 109
246 241 237 227 217 207 203 194 181 175 173 183 194 200 201 197 187 186 185 186 185 174 167 175 162 161 163 159 155 160 164 171 171 163 158 155 151 149
265 262 239 209 190 187 190 192 187 185 188 195 195 193 178 173 182 179 176 175 176 174 175 180 177 169 169 161 158 165 167 165 169 169 159 153 152 159
242 199 168 169 183 187 186 190 190 188 197 199 193 187 183 186 190 185 179 174 186 179 167 160 168 165 165 160 162 168 164 163 165 164 164 162 164 170
182 197 211 211 209 206 201 197 198 201 202 198 195 194 192 193 195 187 185 188 194 190 177 163 152 141 134 145 171 168 168 167 162 167 168 167 171 174
197 226 229 226 224 219 212 207 208 209 202 198 200 199 195 194 194 193 192 196 199 194 183 171 172 172 178 185 183 184 171 163 162 169 176 175 176 173
226 240 242 234 227 223 220 218 217 210 205 206 206 202 197 195 197 198 196 197 198 191 184 182 185 186 190 183 165 170 176 167 169 172 168 148 117 114
253 251 244 237 235 229 225 224 221 217 211 205 206 204 199 197 201 203 200 197 198 194 192 194 194 176 148 130 137 151 167 174 168 166 161 156 157 166
264 260 258 249 241 237 231 224 221 219 213 209 206 204 201 199 201 201 198 194 199 199 197 185 165 163 170 179 177 166 158 150 128 118 130 154 169 181
275 267 261 255 243 238 232 223 220 218 214 210 205 202 199 199 201 200 198 198 197 196 186 175 170 176 182 181 173 164 162 159 153 148 133 36 120 125